EW0880 Weather Reports


Display with metric or nautical units.
time (UTC)temp
F
wind
direction
speed
MPH
gust
MPH
rain 1hr
in
rain 24hr
in
rain mn
in
humidity
%
barometer
mb
20210515102017 52 255 0.0 0.0 0.00 0.00 0.00 82 1021.5
20210515101510 51 255 0.0 0.0 0.00 0.00 0.00 82 1021.5
20210515101018 51 255 0.0 0.0 0.00 0.00 0.00 82 1021.5
20210515100510 51 255 0.0 0.0 0.00 0.00 0.00 82 1021.4
20210515100011 51 255 0.0 0.0 0.00 0.00 0.00 81 1021.3
20210515095511 51 255 0.0 0.0 0.00 0.00 0.00 81 1021.2
20210515095017 51 255 0.0 0.0 0.00 0.00 0.00 81 1021.2
20210515094511 52 255 0.0 0.0 0.00 0.00 0.00 81 1021.1
20210515094017 52 255 0.0 0.0 0.00 0.00 0.00 82 1021.1
20210515093512 52 255 0.0 0.0 0.00 0.00 0.00 82 1021.1
20210515093017 52 255 0.0 0.0 0.00 0.00 0.00 85 1021.0
20210515092510 52 255 0.0 0.0 0.00 0.00 0.00 84 1021.0
20210515092017 51 255 0.0 0.0 0.00 0.00 0.00 79 1021.0
20210515091511 52 255 0.0 0.0 0.00 0.00 0.00 79 1021.0
20210515091017 52 255 0.0 0.0 0.00 0.00 0.00 78 1021.0
20210515090511 52 255 0.0 0.0 0.00 0.00 0.00 76 1021.0
20210515090011 53 255 0.0 0.0 0.00 0.00 0.00 76 1021.0
20210515085511 53 255 0.0 0.0 0.00 0.00 0.00 75 1021.0
20210515085017 54 255 0.0 0.0 0.00 0.00 0.00 74 1021.0
20210515084513 55 255 0.0 0.0 0.00 0.00 0.00 73 1021.0
20210515084018 55 255 0.0 0.0 0.00 0.00 0.00 71 1020.9
20210515083511 55 255 0.0 0.0 0.00 0.00 0.00 69 1020.9
20210515083017 55 255 0.0 0.0 0.00 0.00 0.00 69 1020.9
20210515082510 55 255 0.0 0.0 0.00 0.00 0.00 69 1020.9
20210515082017 56 255 0.0 0.0 0.00 0.00 0.00 68 1020.9
20210515081510 56 255 0.0 0.0 0.00 0.00 0.00 67 1021.0
20210515081017 56 255 0.0 0.0 0.00 0.00 0.00 68 1021.0
20210515080511 56 255 0.0 0.0 0.00 0.00 0.00 67 1021.0
20210515080011 56 255 0.0 2.0 0.00 0.00 0.00 67 1021.0
20210515075511 56 251 0.0 2.0 0.00 0.00 0.00 66 1021.0
20210515075017 57 240 0.0 1.0 0.00 0.00 0.00 66 1020.9
20210515074511 57 239 0.0 2.0 0.00 0.00 0.00 66 1020.9
20210515074017 57 249 1.0 2.0 0.00 0.00 0.00 66 1020.9
20210515073511 57 257 0.0 2.0 0.00 0.00 0.00 65 1020.9
20210515073019 57 257 0.0 2.0 0.00 0.00 0.00 65 1020.9
20210515072510 57 265 0.0 2.0 0.00 0.00 0.00 66 1020.9
20210515072017 57 265 0.0 2.0 0.00 0.00 0.00 65 1020.9
20210515071511 57 286 0.0 2.0 0.00 0.00 0.00 65 1020.8
20210515071017 57 232 0.0 3.0 0.00 0.00 0.00 65 1020.8
20210515070511 57 237 1.0 3.0 0.00 0.00 0.00 65 1020.7
20210515070010 57 228 1.0 3.0 0.00 0.00 0.00 65 1020.7
20210515065511 57 232 0.0 2.0 0.00 0.00 0.00 65 1020.7
20210515065017 57 252 0.0 2.0 0.00 0.00 0.00 65 1020.7
20210515064511 57 245 1.0 3.0 0.00 0.00 0.00 65 1020.7
20210515064016 57 201 1.0 3.0 0.00 0.00 0.00 65 1020.7
20210515063511 57 243 0.0 0.0 0.00 0.00 0.00 65 1020.7
20210515063017 57 246 0.0 0.0 0.00 0.00 0.00 65 1020.6
20210515062511 58 242 0.0 0.0 0.00 0.00 0.00 70 1020.7
20210515062016 57 248 0.0 2.0 0.00 0.00 0.00 64 1020.7
20210515061511 57 246 0.0 3.0 0.00 0.00 0.00 64 1020.6
20210515061017 58 255 0.0 1.0 0.00 0.00 0.00 64 1020.6
20210515060510 58 257 1.0 3.0 0.00 0.00 0.00 64 1020.6
20210515060012 58 227 0.0 3.0 0.00 0.00 0.00 64 1020.6
20210515055511 58 244 1.0 3.0 0.00 0.00 0.00 63 1020.7
20210515055018 58 244 0.0 1.0 0.00 0.00 0.00 63 1020.7
20210515054510 58 241 0.0 0.0 0.00 0.00 0.00 63 1020.7
20210515054017 58 246 0.0 0.0 0.00 0.00 0.00 64 1020.6
20210515053511 58 246 0.0 0.0 0.00 0.00 0.00 62 1020.7
20210515053017 58 219 0.0 3.0 0.00 0.00 0.00 62 1020.7
20210515052511 58 244 0.0 3.0 0.00 0.00 0.00 65 1020.7
20210515052017 58 224 0.0 3.0 0.00 0.00 0.00 62 1020.7
20210515051511 59 236 0.0 3.0 0.00 0.00 0.00 62 1020.7
20210515051017 59 216 1.0 3.0 0.00 0.00 0.00 61 1020.7
20210515050511 59 222 2.0 7.0 0.00 0.00 0.00 61 1020.7
20210515050011 59 231 1.0 3.0 0.00 0.00 0.00 61 1020.8
20210515045511 59 238 1.0 5.0 0.00 0.00 0.00 61 1020.7
20210515045017 59 244 1.0 6.0 0.00 0.00 0.00 61 1020.8
20210515044510 59 216 1.0 3.0 0.00 0.00 0.00 60 1020.8
20210515044016 60 221 1.0 3.0 0.00 0.00 0.00 60 1020.8
20210515043511 60 252 1.0 6.0 0.00 0.00 0.00 60 1020.8
20210515043017 60 222 1.0 5.0 0.00 0.00 0.00 59 1020.8
20210515042511 60 236 2.0 8.0 0.00 0.00 0.00 59 1020.8
20210515042017 60 265 2.0 6.0 0.00 0.00 0.00 58 1020.8
20210515041511 60 236 1.0 5.0 0.00 0.00 0.00 58 1020.8
20210515041017 60 226 2.0 5.0 0.00 0.00 0.00 58 1020.9
20210515040511 61 218 1.0 3.0 0.00 0.00 0.00 58 1020.9
20210515040011 61 234 1.0 6.0 0.00 0.00 0.00 57 1020.8
20210515035510 61 251 1.0 7.0 0.00 0.00 0.00 57 1020.8
20210515035017 61 218 2.0 7.0 0.00 0.00 0.00 57 1020.8
20210515034511 61 218 2.0 7.0 0.00 0.00 0.00 57 1020.8
20210515034017 61 209 1.0 10.0 0.00 0.00 0.00 57 1020.8
20210515033510 61 229 2.0 8.0 0.00 0.00 0.00 57 1020.8
20210515033017 61 234 2.0 7.0 0.00 0.00 0.00 58 1020.8
20210515032510 61 256 1.0 3.0 0.00 0.00 0.00 59 1020.8
20210515032017 61 238 1.0 3.0 0.00 0.00 0.00 58 1020.8
20210515031511 61 210 1.0 5.0 0.00 0.00 0.00 58 1020.8
20210515031016 61 228 1.0 3.0 0.00 0.00 0.00 58 1020.8
20210515030513 62 215 1.0 5.0 0.00 0.00 0.00 57 1020.8
20210515030011 62 209 2.0 8.0 0.00 0.00 0.00 57 1020.9
20210515025511 62 234 1.0 12.0 0.00 0.00 0.00 56 1020.9
20210515025016 62 231 1.0 5.0 0.00 0.00 0.00 56 1021.0
20210515024511 62 238 1.0 5.0 0.00 0.00 0.00 56 1021.0
20210515024017 62 220 1.0 5.0 0.00 0.00 0.00 56 1021.0
20210515023510 62 257 1.0 6.0 0.00 0.00 0.00 56 1020.9
20210515023018 63 197 1.0 9.0 0.00 0.00 0.00 56 1021.0
20210515022510 63 207 2.0 9.0 0.00 0.00 0.00 57 1020.9
20210515022016 63 208 1.0 5.0 0.00 0.00 0.00 55 1020.9
20210515021511 63 222 1.0 8.0 0.00 0.00 0.00 55 1020.9
20210515021016 63 206 2.0 10.0 0.00 0.00 0.00 55 1020.9
20210515020510 63 221 1.0 6.0 0.00 0.00 0.00 55 1020.9
20210515020011 63 255 1.0 12.0 0.00 0.00 0.00 55 1020.9
20210515015510 63 225 4.0 12.0 0.00 0.00 0.00 55 1020.9
20210515015017 63 203 3.0 13.0 0.00 0.00 0.00 56 1020.8
20210515014510 63 215 1.0 3.0 0.00 0.00 0.00 58 1020.8
20210515014016 63 217 1.0 3.0 0.00 0.00 0.00 58 1020.8
20210515013510 63 234 1.0 6.0 0.00 0.00 0.00 57 1020.7
20210515013016 63 222 3.0 9.0 0.00 0.00 0.00 57 1020.7
20210515012510 63 220 1.0 6.0 0.00 0.00 0.00 57 1020.7
20210515012016 63 190 2.0 8.0 0.00 0.00 0.00 57 1020.6
20210515011510 63 223 1.0 6.0 0.00 0.00 0.00 57 1020.6
20210515011017 63 212 2.0 9.0 0.00 0.00 0.00 57 1020.7
20210515010511 63 205 1.0 7.0 0.00 0.00 0.00 57 1020.5
20210515010011 63 212 1.0 7.0 0.00 0.00 0.00 57 1020.5
20210515005511 64 224 2.0 8.0 0.00 0.00 0.00 56 1020.4
20210515005016 64 218 2.0 9.0 0.00 0.00 0.00 56 1020.4
20210515004511 64 218 1.0 8.0 0.00 0.00 0.00 56 1020.2
20210515004016 64 213 2.0 12.0 0.00 0.00 0.00 56 1020.2
20210515003510 64 211 2.0 8.0 0.00 0.00 0.00 56 1020.1
20210515003016 64 208 3.0 9.0 0.00 0.00 0.00 56 1020.0
20210515002510 64 214 2.0 9.0 0.00 0.00 0.00 56 1020.0
20210515002016 64 203 4.0 9.0 0.00 0.00 0.00 55 1019.9
20210515001510 64 219 2.0 7.0 0.00 0.00 0.00 55 1019.9
20210515001016 64 214 2.0 10.0 0.00 0.00 0.00 55 1019.9
20210515000510 64 222 2.0 6.0 0.00 0.00 0.00 55 1020.0
20210515000010 64 222 2.0 9.0 0.00 0.00 0.00 55 1019.9
20210514235511 64 207 1.0 9.0 0.00 0.00 0.00 55 1019.8
20210514235017 64 195 2.0 12.0 0.00 0.00 0.00 55 1019.8
20210514234510 64 206 3.0 12.0 0.00 0.00 0.00 55 1019.8
20210514234018 65 223 3.0 15.0 0.00 0.00 0.00 55 1019.8
20210514233510 65 220 5.0 12.0 0.00 0.00 0.00 55 1019.7
20210514233016 65 211 2.0 8.0 0.00 0.00 0.00 55 1019.6
20210514232511 65 225 2.0 8.0 0.00 0.00 0.00 55 1019.6
20210514232017 65 206 3.0 13.0 0.00 0.00 0.00 54 1019.5
20210514231510 66 202 2.0 13.0 0.00 0.00 0.00 54 1019.5
20210514231016 66 218 1.0 10.0 0.00 0.00 0.00 54 1019.5
20210514230511 66 215 3.0 10.0 0.00 0.00 0.00 53 1019.5
20210514230010 66 217 2.0 9.0 0.00 0.00 0.00 52 1019.4
20210514225510 66 186 1.0 6.0 0.00 0.00 0.00 52 1019.5
20210514225017 67 233 3.0 12.0 0.00 0.00 0.00 51 1019.5
20210514224511 67 201 4.0 12.0 0.00 0.00 0.00 51 1019.4
20210514224017 67 217 4.0 12.0 0.00 0.00 0.00 51 1019.4
20210514223511 67 192 3.0 10.0 0.00 0.00 0.00 52 1019.4
20210514223017 67 217 5.0 17.0 0.00 0.00 0.00 52 1019.5
20210514222510 67 195 5.0 12.0 0.00 0.00 0.00 52 1019.4
20210514222022 68 202 5.0 12.0 0.00 0.00 0.00 52 1019.4
20210514221511 68 204 2.0 12.0 0.00 0.00 0.00 51 1019.4
20210514221016 68 197 0.0 12.0 0.00 0.00 0.00 51 1019.4
20210514220510 68 196 2.0 12.0 0.00 0.00 0.00 49 1019.4
20210514220011 69 213 4.0 12.0 0.00 0.00 0.00 48 1019.4
20210514215510 69 204 3.0 9.0 0.00 0.00 0.00 48 1019.4
20210514215017 68 228 3.0 10.0 0.00 0.00 0.00 48 1019.4
20210514214510 68 224 5.0 12.0 0.00 0.00 0.00 47 1019.5
20210514214016 68 223 4.0 13.0 0.00 0.00 0.00 47 1019.5
20210514213510 68 174 6.0 12.0 0.00 0.00 0.00 47 1019.6
20210514213016 69 181 3.0 12.0 0.00 0.00 0.00 47 1019.6
20210514212510 69 200 3.0 12.0 0.00 0.00 0.00 48 1019.5
20210514212017 69 196 5.0 14.0 0.00 0.00 0.00 47 1019.6
20210514211512 69 213 4.0 13.0 0.00 0.00 0.00 47 1019.6
20210514211017 70 220 3.0 13.0 0.00 0.00 0.00 47 1019.6
20210514210511 70 196 3.0 14.0 0.00 0.00 0.00 47 1019.5
20210514210011 70 219 5.0 12.0 0.00 0.00 0.00 46 1019.5
20210514205510 70 204 1.0 6.0 0.00 0.00 0.00 47 1019.5
20210514205017 70 205 1.0 8.0 0.00 0.00 0.00 46 1019.5
20210514204510 70 213 2.0 10.0 0.00 0.00 0.00 45 1019.7
20210514204016 70 213 2.0 15.0 0.00 0.00 0.00 44 1019.6
20210514203510 70 206 5.0 14.0 0.00 0.00 0.00 44 1019.6
20210514203016 71 232 4.0 13.0 0.00 0.00 0.00 45 1019.7
20210514202510 71 197 2.0 13.0 0.00 0.00 0.00 45 1019.6
20210514202016 71 217 2.0 6.0 0.00 0.00 0.00 45 1019.6
20210514201510 71 219 1.0 5.0 0.00 0.00 0.00 45 1019.6
20210514201016 71 228 4.0 12.0 0.00 0.00 0.00 45 1019.5
20210514200511 71 216 1.0 8.0 0.00 0.00 0.00 45 1019.5
20210514200011 71 216 5.0 13.0 0.00 0.00 0.00 45 1019.5
20210514195511 71 207 1.0 7.0 0.00 0.00 0.00 46 1019.6
20210514195016 71 216 1.0 7.0 0.00 0.00 0.00 46 1019.6
20210514194510 71 218 2.0 9.0 0.00 0.00 0.00 44 1019.5
20210514194017 72 210 5.0 13.0 0.00 0.00 0.00 44 1019.6
20210514193512 73 229 3.0 13.0 0.00 0.00 0.00 44 1019.5
20210514193017 73 306 3.0 8.0 0.00 0.00 0.00 44 1019.7
20210514192511 73 85 1.0 3.0 0.00 0.00 0.00 44 1019.7
20210514192017 74 215 1.0 7.0 0.00 0.00 0.00 42 1019.6
20210514191511 74 258 1.0 5.0 0.00 0.00 0.00 43 1019.6
20210514191017 75 234 2.0 6.0 0.00 0.00 0.00 42 1019.7
20210514190512 75 215 1.0 8.0 0.00 0.00 0.00 41 1019.7
20210514190010 75 160 0.0 0.0 0.00 0.00 0.00 40 1019.7
20210514185510 75 136 0.0 3.0 0.00 0.00 0.00 40 1019.7
20210514185016 74 109 0.0 1.0 0.00 0.00 0.00 39 1019.8
20210514184510 74 144 0.0 2.0 0.00 0.00 0.00 39 1019.8
20210514184016 74 86 0.0 2.0 0.00 0.00 0.00 42 1019.9
20210514183511 74 100 0.0 0.0 0.00 0.00 0.00 41 1019.9
20210514183017 74 60 0.0 5.0 0.00 0.00 0.00 41 1020.0
20210514182511 74 282 2.0 5.0 0.00 0.00 0.00 39 1020.0
20210514182017 73 231 0.0 7.0 0.00 0.00 0.00 39 1020.0
20210514181510 74 226 1.0 5.0 0.00 0.00 0.00 41 1020.0
20210514181017 74 221 1.0 5.0 0.00 0.00 0.00 40 1020.0
20210514180512 74 196 0.0 3.0 0.00 0.00 0.00 39 1020.1
20210514180011 74 295 1.0 7.0 0.00 0.00 0.00 39 1020.1
20210514175511 75 215 2.0 9.0 0.00 0.00 0.00 39 1020.2
20210514175016 74 274 0.0 0.0 0.00 0.00 0.00 40 1020.2
20210514174510 74 274 0.0 9.0 0.00 0.00 0.00 40 1020.3
20210514174016 74 302 0.0 3.0 0.00 0.00 0.00 39 1020.3
20210514173511 74 224 2.0 5.0 0.00 0.00 0.00 39 1020.3
20210514173016 74 332 0.0 8.0 0.00 0.00 0.00 40 1020.4
20210514172510 74 294 3.0 9.0 0.00 0.00 0.00 39 1020.4
20210514172016 75 264 4.0 9.0 0.00 0.00 0.00 39 1020.4
20210514171511 74 239 2.0 9.0 0.00 0.00 0.00 41 1020.5
20210514171017 75 248 3.0 6.0 0.00 0.00 0.00 40 1020.5
20210514170510 74 57 1.0 2.0 0.00 0.00 0.00 42 1020.5
20210514170010 74 269 1.0 3.0 0.00 0.00 0.00 39 1020.6
20210514165512 74 288 0.0 6.0 0.00 0.00 0.00 40 1020.6
20210514165016 73 341 0.0 3.0 0.00 0.00 0.00 39 1020.7
20210514164510 73 69 1.0 6.0 0.00 0.00 0.00 40 1020.7
20210514164016 73 267 5.0 12.0 0.00 0.00 0.00 41 1020.7
20210514163511 73 240 3.0 7.0 0.00 0.00 0.00 40 1020.8
20210514163016 73 296 3.0 7.0 0.00 0.00 0.00 42 1020.8
20210514162510 72 340 2.0 9.0 0.00 0.00 0.00 41 1020.9
20210514162017 73 316 3.0 9.0 0.00 0.00 0.00 41 1020.9
20210514161510 73 97 1.0 8.0 0.00 0.00 0.00 42 1020.9
20210514161016 74 53 1.0 6.0 0.00 0.00 0.00 43 1021.0
20210514160510 73 71 1.0 6.0 0.00 0.00 0.00 43 1021.1
20210514160010 72 315 1.0 5.0 0.00 0.00 0.00 44 1021.1
20210514155510 72 267 1.0 3.0 0.00 0.00 0.00 44 1021.1
20210514155016 72 28 1.0 8.0 0.00 0.00 0.00 43 1021.2
20210514154510 72 49 3.0 6.0 0.00 0.00 0.00 44 1021.2
20210514154016 71 7 2.0 10.0 0.00 0.00 0.00 43 1021.3
20210514153510 72 18 1.0 10.0 0.00 0.00 0.00 46 1021.3
20210514153017 71 337 2.0 8.0 0.00 0.00 0.00 45 1021.5
20210514152510 71 304 2.0 8.0 0.00 0.00 0.00 45 1021.5
20210514152016 71 298 2.0 9.0 0.00 0.00 0.00 45 1021.4
20210514151510 72 324 1.0 3.0 0.00 0.00 0.00 46 1021.4
20210514151016 71 275 3.0 8.0 0.00 0.00 0.00 47 1021.4
20210514150511 71 49 1.0 3.0 0.00 0.00 0.00 46 1021.4
20210514150010 70 240 2.0 9.0 0.00 0.00 0.00 46 1021.5
20210514145510 70 44 3.0 10.0 0.00 0.00 0.00 46 1021.5
20210514145016 71 322 5.0 14.0 0.00 0.00 0.00 46 1021.5
20210514144510 70 1 2.0 7.0 0.00 0.00 0.00 46 1021.6
20210514144017 70 329 4.0 12.0 0.00 0.00 0.00 47 1021.5
20210514143510 70 330 3.0 8.0 0.00 0.00 0.00 47 1021.5
20210514143016 69 309 4.0 10.0 0.00 0.00 0.00 47 1021.5
20210514142510 69 326 1.0 8.0 0.00 0.00 0.00 48 1021.5
20210514142016 69 336 2.0 9.0 0.00 0.00 0.00 49 1021.6
20210514141511 69 340 2.0 7.0 0.00 0.00 0.00 49 1021.6
20210514141016 69 283 2.0 8.0 0.00 0.00 0.00 49 1021.6
20210514140510 68 282 4.0 9.0 0.00 0.00 0.00 51 1021.6
20210514140010 68 329 3.0 9.0 0.00 0.00 0.00 51 1021.7
20210514135510 68 300 2.0 8.0 0.00 0.00 0.00 51 1021.6
20210514135016 67 309 2.0 8.0 0.00 0.00 0.00 51 1021.7
20210514134510 67 309 2.0 12.0 0.00 0.00 0.00 51 1021.7
20210514134016 67 333 3.0 9.0 0.00 0.00 0.00 51 1021.8
20210514133510 67 321 6.0 9.0 0.00 0.00 0.00 51 1021.8
20210514133016 67 304 2.0 9.0 0.00 0.00 0.00 53 1021.7
20210514132511 66 31 2.0 5.0 0.00 0.00 0.00 53 1021.8
20210514132015 66 301 3.0 9.0 0.00 0.00 0.00 54 1021.8
20210514131510 65 301 4.0 10.0 0.00 0.00 0.00 53 1021.8
20210514131016 65 9 1.0 6.0 0.00 0.00 0.00 55 1021.8
20210514130510 64 292 2.0 7.0 0.00 0.00 0.00 56 1021.8
20210514130010 64 248 1.0 7.0 0.00 0.00 0.00 57 1021.8
20210514125510 63 285 1.0 3.0 0.00 0.00 0.00 58 1021.8
20210514125016 63 313 1.0 3.0 0.00 0.00 0.00 59 1021.8
20210514124510 62 294 2.0 6.0 0.00 0.00 0.00 59 1021.7
20210514124016 62 320 2.0 6.0 0.00 0.00 0.00 58 1021.8
20210514123510 62 277 1.0 7.0 0.00 0.00 0.00 58 1021.8
20210514123016 61 345 2.0 7.0 0.00 0.00 0.00 59 1021.8
20210514122510 61 309 1.0 5.0 0.00 0.00 0.00 59 1021.7
20210514122016 60 299 5.0 8.0 0.00 0.00 0.00 59 1021.8
20210514121510 60 298 1.0 6.0 0.00 0.00 0.00 60 1021.8
20210514121016 59 331 2.0 8.0 0.00 0.00 0.00 61 1021.8
20210514120510 59 285 3.0 8.0 0.00 0.00 0.00 61 1021.8
20210514120010 59 321 1.0 5.0 0.00 0.00 0.00 63 1021.7
20210514115515 59 317 3.0 7.0 0.00 0.00 0.00 61 1021.6
20210514115015 58 324 2.0 6.0 0.00 0.00 0.00 63 1021.7
20210514114510 58 300 2.0 3.0 0.00 0.00 0.00 63 1021.6
20210514114016 57 317 1.0 6.0 0.00 0.00 0.00 64 1021.6
20210514113510 57 312 3.0 8.0 0.00 0.00 0.00 63 1021.6
20210514113016 57 321 1.0 8.0 0.00 0.00 0.00 64 1021.5
20210514112510 56 299 1.0 7.0 0.00 0.00 0.00 66 1021.5
20210514112016 56 303 1.0 7.0 0.00 0.00 0.00 67 1021.5
20210514111510 55 280 1.0 3.0 0.00 0.00 0.00 67 1021.5
20210514111016 55 253 2.0 7.0 0.00 0.00 0.00 68 1021.4
20210514110512 55 262 1.0 8.0 0.00 0.00 0.00 69 1021.4
20210514110010 55 288 1.0 7.0 0.00 0.00 0.00 68 1021.3
20210514105510 54 284 1.0 3.0 0.00 0.00 0.00 68 1021.2
20210514105016 54 256 1.0 8.0 0.00 0.00 0.00 68 1021.1
20210514104510 54 267 2.0 12.0 0.00 0.00 0.00 68 1021.1
20210514104016 54 271 1.0 10.0 0.00 0.00 0.00 68 1021.1
20210514103509 54 266 3.0 8.0 0.00 0.00 0.00 69 1021.0
20210514103015 54 267 3.0 9.0 0.00 0.00 0.00 69 1020.9
20210514102509 53 247 1.0 3.0 0.00 0.00 0.00 72 1020.8